Location: Mercogliano
(40.9167°N, 14.7333°E)
Time: 11:33:10
(UTC+00:00)

Cosmos 2026 Rocket - Visible Passes

Search period start: 18 January 2021 00:00
Search period end: 28 January 2021 00:00
Orbit: 939 x 1001 km, 82.9° (Epoch: 17 January)

Date Brightness Start Highest point End Pass type
(mag) Time Alt. Az. Time Alt. Az. Time Alt. Az.
18 Jan 4.8 05:16:24 10° N 05:22:38 57° E 05:28:52 10° SSE visible
18 Jan 5.2 17:02:42 10° ESE 17:06:25 17° E 17:07:23 16° ENE visible
18 Jan 4.1 18:44:55 10° SSW 18:50:57 68° W 18:52:06 56° NNW visible
19 Jan 6.7 03:56:54 10° NNE 04:00:24 15° ENE 04:03:54 10° E visible
19 Jan 4.1 05:40:07 10° N 05:46:28 84° W 05:52:51 10° S visible
19 Jan 4.6 17:24:37 10° SE 17:29:49 30° E 17:33:53 15° NE visible
19 Jan 5.2 19:09:17 10° SW 19:14:53 38° WNW 19:18:42 19° NNW visible
20 Jan 6.1 04:19:27 10° NNE 04:24:39 26° ENE 04:29:52 10° SE visible
20 Jan 4.0 17:47:29 10° SSE 17:53:22 54° E 17:59:22 10° NNE visible
20 Jan 6.0 19:34:23 10° WSW 19:39:00 22° WNW 19:43:42 10° NNW visible
21 Jan 5.2 04:42:41 10° N 04:48:44 45° ENE 04:54:47 10° SSE visible
21 Jan 5.5 16:30:13 10° ESE 16:32:46 13° E 16:35:22 10° NE visible
21 Jan 3.9 18:10:59 10° S 18:17:04 86° W 18:23:17 10° N visible
21 Jan 6.7 20:00:54 10° W 20:03:20 12° WNW 20:05:47 10° NW visible
22 Jan 6.8 03:24:14 10° NE 03:26:18 12° ENE 03:28:23 10° E visible
22 Jan 4.2 05:06:16 10° N 05:12:39 78° E 05:19:01 10° S visible
22 Jan 4.9 16:51:24 10° SE 16:56:07 24° E 17:00:53 10° NNE visible
22 Jan 4.8 18:35:05 10° SSW 18:40:57 49° WNW 18:46:57 10° N visible
23 Jan 6.4 03:46:00 10° NNE 03:50:39 21° ENE 03:55:18 10° ESE visible
23 Jan 4.1 05:30:08 10° NNW 05:36:24 62° W 05:42:39 10° S visible
23 Jan 4.3 17:13:55 10° SSE 17:19:36 42° E 17:25:22 10° NNE visible
23 Jan 5.8 18:59:50 10° SW 19:05:00 28° WNW 19:10:15 10° NNW visible
24 Jan 5.6 04:09:01 10° N 04:14:49 35° ENE 04:20:35 10° SE visible
24 Jan 3.8 17:37:10 10° S 17:43:14 76° E 17:49:27 10° N visible
24 Jan 6.5 19:25:33 10° WSW 19:29:13 16° WNW 19:32:56 10° NNW visible
25 Jan 4.6 04:32:28 10° N 04:38:47 61° E 04:45:05 10° SSE visible
25 Jan 4.4 18:01:00 10° SSW 18:07:02 63° W 18:13:13 10° N visible
26 Jan 6.6 03:12:45 10° NNE 03:16:37 16° ENE 03:20:29 10° ESE visible
26 Jan 4.0 04:56:14 10° N 05:02:37 78° W 05:08:58 10° S visible
26 Jan 4.6 16:40:29 10° SSE 16:45:51 33° E 16:51:19 10° NNE visible
26 Jan 5.4 18:25:27 10° SW 18:31:01 36° WNW 18:36:41 10° N visible
27 Jan 5.9 03:35:27 10° NNE 03:40:51 28° ENE 03:46:14 10° SE visible
27 Jan 4.3 05:20:16 10° NNW 05:26:17 45° W 05:32:16 10° SSW visible
27 Jan 4.0 17:03:27 10° S 17:09:26 59° E 17:15:32 10° NNE visible
27 Jan 6.3 18:50:41 10° WSW 18:55:10 21° WNW 18:59:43 10° NNW visible
